TimeNZDT,TemperatureF,Dew PointF,Humidity,Sea Level PressureIn,VisibilityMPH,Wind Direction,Wind SpeedMPH,Gust SpeedMPH,PrecipitationIn,Events,Conditions,WindDirDegrees,DateUTC
12:00 AM,48.2,46.4,93,29.74,6.2,WSW,2.3,-,N/A,,Scattered Clouds,240,2012-11-15 11:00:00
1:00 AM,50.0,46.4,87,29.74,6.2,WSW,2.3,-,N/A,,Scattered Clouds,250,2012-11-15 12:00:00
2:00 AM,44.6,42.8,93,29.74,6.2,SSW,3.5,-,N/A,,Scattered Clouds,210,2012-11-15 13:00:00
3:00 AM,44.6,42.8,93,29.74,6.2,WSW,2.3,-,N/A,,Partly Cloudy,250,2012-11-15 14:00:00
4:00 AM,44.6,42.8,93,29.74,6.2,West,2.3,-,N/A,Fog,Shallow Fog,280,2012-11-15 15:00:00
5:00 AM,44.6,44.6,100,29.74,6.2,West,4.6,-,N/A,Fog,Shallow Fog,270,2012-11-15 16:00:00
6:00 AM,42.8,42.8,100,29.77,6.2,WNW,2.3,-,N/A,Fog,Shallow Fog,290,2012-11-15 17:00:00
7:00 AM,44.6,42.8,93,29.77,6.2,WNW,1.2,-,N/A,,Partly Cloudy,300,2012-11-15 18:00:00
8:00 AM,48.2,48.2,100,29.77,6.2,WSW,1.2,-,N/A,,Partly Cloudy,250,2012-11-15 19:00:00
9:00 AM,53.6,51.8,94,29.77,6.2,SSW,2.3,-,N/A,,Partly Cloudy,210,2012-11-15 20:00:00
10:00 AM,57.2,48.2,72,29.77,6.2,SSE,4.6,-,N/A,,Scattered Clouds,160,2012-11-15 21:00:00
11:00 AM,57.2,46.4,67,29.74,6.2,ESE,2.3,-,N/A,,Mostly Cloudy,120,2012-11-15 22:00:00
12:00 PM,60.8,48.2,63,29.74,6.2,ENE,6.9,-,N/A,,Mostly Cloudy,60,2012-11-15 23:00:00
1:00 PM,62.6,46.4,55,29.71,6.2,East,9.2,-,N/A,,Scattered Clouds,80,2012-11-16 00:00:00
2:00 PM,62.6,50.0,63,29.71,6.2,ENE,12.7,-,N/A,,Scattered Clouds,60,2012-11-16 01:00:00
3:00 PM,60.8,48.2,63,29.68,6.2,ENE,16.1,-,N/A,,Mostly Cloudy,60,2012-11-16 02:00:00
4:00 PM,60.8,48.2,63,29.68,6.2,ENE,18.4,-,N/A,,Scattered Clouds,60,2012-11-16 03:00:00
5:00 PM,60.8,46.4,59,29.65,6.2,ENE,20.7,-,N/A,,Partly Cloudy,70,2012-11-16 04:00:00
6:00 PM,59.0,48.2,67,29.62,6.2,ENE,20.7,-,N/A,,Partly Cloudy,70,2012-11-16 05:00:00
7:00 PM,57.2,48.2,72,29.62,6.2,ENE,16.1,-,N/A,,Partly Cloudy,70,2012-11-16 06:00:00
8:00 PM,55.4,50.0,82,29.62,-9999.0,East,15.0,-,N/A,,Clear,90,2012-11-16 07:00:00
9:00 PM,55.4,50.0,82,29.62,-9999.0,East,12.7,-,N/A,,Clear,100,2012-11-16 08:00:00
10:00 PM,53.6,50.0,88,29.62,-9999.0,ESE,9.2,-,N/A,,Clear,110,2012-11-16 09:00:00
11:00 PM,53.6,48.2,82,29.59,-9999.0,East,4.6,-,N/A,,Clear,90,2012-11-16 10:00:00